Location: Arrodets-la-Barthe
(43.0306°N, 0.2829°E)
Time: 20:32:32
(UTC+00:00)

FO-29 - Pass Details

Date: 08 April 2023
Orbit: 799 x 1322 km, 98.5° (Epoch: 08 June)

Event Time Altitude Azimuth Distance (km) Brightness Sun altitude
Rises 04:33:08 0° 16° (NNE) 4,181 13.4 -10.8°
Reaches altitude 10° 04:35:59 10° 20° (NNE) 3,150 12.8 -10.3°
Maximum altitude 04:43:04 58° 99° (E) 1,268 10.5 -9.0°
Drops below altitude 10° 04:49:16 10° 178° (S) 2,773 11.7 -8.0°
Sets 04:51:38 0° 182° (S) 3,648 12.3 -7.6°
